| time (UTC) | temp F | wind direction | speed MPH | gust MPH | rain 1hr in | rain 24hr in | rain mn in | humidity % | barometer mb |
| 20260906104516 | 64 | 0.0 | 0.0 | 0.00 | 0.00 | 0.00 | 98 | 1016.1 | |
| 20260906103516 | 64 | 0.0 | 0.0 | 0.00 | 0.00 | 0.00 | 98 | 1015.7 | |
| 20260906102517 | 63 | 0.0 | 0.0 | 0.00 | 0.00 | 0.00 | 98 | 1015.5 | |
| 20260906101516 | 63 | 0.0 | 0.0 | 0.00 | 0.00 | 0.00 | 98 | 1015.4 | |
| 20260906100516 | 63 | 0.0 | 0.0 | 0.00 | 0.00 | 0.00 | 97 | 1015.3 | |
| 20260906095516 | 63 | 0.0 | 0.0 | 0.00 | 0.00 | 0.00 | 97 | 1015.2 | |
| 20260906094516 | 63 | 0.0 | 0.0 | 0.00 | 0.00 | 0.00 | 97 | 1015.4 | |
| 20260906093516 | 63 | 0.0 | 0.0 | 0.00 | 0.00 | 0.00 | 97 | 1015.5 | |
| 20260906092536 | 64 | 0.0 | 0.0 | 0.00 | 0.00 | 0.00 | 97 | 1015.5 | |
| 20260906091536 | 64 | 0.0 | 0.0 | 0.00 | 0.00 | 0.00 | 97 | 1015.7 | |
| 20260906090516 | 64 | 0.0 | 0.0 | 0.00 | 0.00 | 0.00 | 97 | 1015.7 | |
| 20260906085516 | 64 | 0.0 | 0.0 | 0.00 | 0.00 | 0.00 | 97 | 1015.5 | |
| 20260906084536 | 64 | 0.0 | 0.0 | 0.00 | 0.00 | 0.00 | 96 | 1015.2 | |
| 20260906083516 | 64 | 0.0 | 0.0 | 0.00 | 0.00 | 0.00 | 97 | 1015.1 | |
| 20260906082516 | 64 | 0.0 | 0.0 | 0.00 | 0.00 | 0.00 | 97 | 1014.9 | |
| 20260906081516 | 64 | 0.0 | 0.0 | 0.00 | 0.00 | 0.00 | 97 | 1014.7 | |
| 20260906080555 | 64 | 0.0 | 0.0 | 0.00 | 0.00 | 0.00 | 96 | 1014.7 | |
| 20260906075516 | 64 | 0.0 | 0.0 | 0.00 | 0.00 | 0.00 | 96 | 1014.6 | |
| 20260906074536 | 64 | 0.0 | 0.0 | 0.00 | 0.00 | 0.00 | 96 | 1014.6 | |
| 20260906073516 | 64 | 0.0 | 0.0 | 0.00 | 0.00 | 0.00 | 96 | 1014.5 | |
| 20260906072516 | 65 | 0.0 | 0.0 | 0.00 | 0.00 | 0.00 | 96 | 1014.5 | |
| 20260906071516 | 65 | 0.0 | 0.0 | 0.00 | 0.00 | 0.00 | 96 | 1014.4 | |
| 20260906070516 | 65 | 0.0 | 0.0 | 0.00 | 0.00 | 0.00 | 96 | 1014.7 | |
| 20260906065516 | 66 | 0.0 | 0.0 | 0.00 | 0.00 | 0.00 | 96 | 1014.7 | |
| 20260906064516 | 66 | 0.0 | 0.0 | 0.00 | 0.00 | 0.00 | 96 | 1014.8 | |
| 20260906063516 | 66 | 0.0 | 0.0 | 0.00 | 0.00 | 0.00 | 95 | 1014.9 | |
| 20260906062516 | 67 | 0.0 | 0.0 | 0.00 | 0.00 | 0.00 | 95 | 1015.0 | |
| 20260906061516 | 67 | 0.0 | 0.0 | 0.00 | 0.00 | 0.00 | 95 | 1015.0 | |
| 20260906060516 | 67 | 0.0 | 0.0 | 0.00 | 0.00 | 0.00 | 95 | 1015.1 | |
| 20260906055536 | 67 | 0.0 | 0.0 | 0.00 | 0.00 | 0.00 | 95 | 1015.0 | |
| 20260906054516 | 67 | 0.0 | 0.0 | 0.00 | 0.00 | 0.00 | 93 | 1015.0 | |
| 20260906053526 | 67 | 0.0 | 0.0 | 0.00 | 0.00 | 0.00 | 93 | 1014.9 | |
| 20260906052516 | 67 | 0.0 | 0.0 | 0.00 | 0.00 | 0.00 | 92 | 1014.9 | |
| 20260906051516 | 67 | 0.0 | 0.0 | 0.00 | 0.00 | 0.00 | 91 | 1015.2 | |
| 20260906050516 | 67 | 0.0 | 0.0 | 0.00 | 0.00 | 0.00 | 91 | 1015.3 | |
| 20260906045516 | 67 | 0.0 | 0.0 | 0.00 | 0.00 | 0.00 | 90 | 1015.4 | |
| 20260906044516 | 68 | 0.0 | 0.0 | 0.00 | 0.00 | 0.00 | 90 | 1015.6 | |
| 20260906043555 | 68 | 0.0 | 0.0 | 0.00 | 0.00 | 0.00 | 89 | 1015.9 | |
| 20260906042516 | 68 | 0.0 | 0.0 | 0.00 | 0.00 | 0.00 | 89 | 1015.9 | |
| 20260906041516 | 67 | 0.0 | 2.0 | 0.00 | 0.00 | 0.00 | 91 | 1015.8 | |
| 20260906040516 | 66 | 0.0 | 0.0 | 0.00 | 0.00 | 0.00 | 92 | 1015.6 | |
| 20260906035516 | 67 | 0.0 | 0.0 | 0.00 | 0.00 | 0.00 | 92 | 1015.7 | |
| 20260906034516 | 67 | 0.0 | 0.0 | 0.00 | 0.00 | 0.00 | 91 | 1016.0 | |
| 20260906033516 | 67 | 0.0 | 0.0 | 0.00 | 0.00 | 0.00 | 90 | 1016.1 | |
| 20260906032535 | 67 | 0.0 | 0.0 | 0.00 | 0.00 | 0.00 | 89 | 1016.3 | |
| 20260906031516 | 68 | 0.0 | 0.0 | 0.00 | 0.00 | 0.00 | 88 | 1015.9 | |
| 20260906030515 | 68 | 0.0 | 0.0 | 0.00 | 0.00 | 0.00 | 88 | 1016.1 | |
| 20260906025516 | 68 | 0.0 | 0.0 | 0.00 | 0.00 | 0.00 | 88 | 1016.1 | |
| 20260906024516 | 68 | 0.0 | 0.0 | 0.00 | 0.00 | 0.00 | 88 | 1016.0 | |
| 20260906023515 | 68 | 0.0 | 0.0 | 0.00 | 0.00 | 0.00 | 88 | 1015.8 | |
| 20260906022535 | 69 | 0.0 | 0.0 | 0.00 | 0.00 | 0.00 | 87 | 1015.9 | |
| 20260906021515 | 69 | 0.0 | 1.0 | 0.00 | 0.00 | 0.00 | 86 | 1015.5 | |
| 20260906020516 | 69 | 0.0 | 1.0 | 0.00 | 0.00 | 0.00 | 86 | 1015.6 | |
| 20260906015515 | 69 | 0.0 | 0.0 | 0.00 | 0.00 | 0.00 | 85 | 1015.5 | |
| 20260906014515 | 70 | 0.0 | 0.0 | 0.00 | 0.00 | 0.00 | 84 | 1015.3 | |
| 20260906013516 | 70 | 0.0 | 0.0 | 0.00 | 0.00 | 0.00 | 84 | 1015.3 | |
| 20260906012516 | 71 | 0.0 | 0.0 | 0.00 | 0.00 | 0.00 | 82 | 1015.4 | |
| 20260906011515 | 72 | 0.0 | 0.0 | 0.00 | 0.00 | 0.00 | 79 | 1015.4 | |
| 20260906010516 | 73 | 0.0 | 0.0 | 0.00 | 0.00 | 0.00 | 78 | 1015.2 | |
| 20260906005515 | 73 | 0.0 | 1.0 | 0.00 | 0.00 | 0.00 | 77 | 1015.1 | |
| 20260906004535 | 73 | 0.0 | 1.0 | 0.00 | 0.00 | 0.00 | 76 | 1014.9 | |
| 20260906003535 | 74 | 0.0 | 1.0 | 0.00 | 0.00 | 0.00 | 76 | 1014.8 | |
| 20260906002515 | 74 | 0.0 | 1.0 | 0.00 | 0.00 | 0.00 | 75 | 1014.8 | |
| 20260906001515 | 74 | 0.0 | 1.0 | 0.00 | 0.00 | 0.00 | 75 | 1014.3 | |
| 20260906000515 | 74 | 0.0 | 4.0 | 0.00 | 0.00 | 0.00 | 74 | 1014.4 | |
| 20260905235515 | 74 | 0.0 | 1.0 | 0.00 | 0.00 | 0.00 | 74 | 1014.1 | |
| 20260905234633 | 74 | 0.0 | 1.0 | 0.00 | 0.00 | 0.00 | 74 | 1014.0 | |
| 20260905233516 | 75 | 0.0 | 2.0 | 0.00 | 0.00 | 0.00 | 73 | 1013.9 | |
| 20260905232515 | 76 | 0.0 | 2.0 | 0.00 | 0.00 | 0.00 | 72 | 1014.1 | |
| 20260905231515 | 77 | 0.0 | 4.0 | 0.00 | 0.00 | 0.00 | 71 | 1014.3 | |
| 20260905230535 | 78 | 0.0 | 1.0 | 0.00 | 0.00 | 0.00 | 69 | 1014.2 | |
| 20260905225515 | 79 | 0.0 | 1.0 | 0.00 | 0.00 | 0.00 | 68 | 1014.6 | |
| 20260905224515 | 80 | 0.0 | 0.0 | 0.00 | 0.00 | 0.00 | 66 | 1014.4 | |
| 20260905223515 | 82 | 0.0 | 1.0 | 0.00 | 0.00 | 0.00 | 64 | 1014.6 | |
| 20260905222515 | 83 | 0.0 | 2.0 | 0.00 | 0.00 | 0.00 | 62 | 1015.0 | |
| 20260905221535 | 84 | 0.0 | 0.0 | 0.00 | 0.00 | 0.00 | 60 | 1014.9 | |
| 20260905220515 | 84 | 0.0 | 3.0 | 0.00 | 0.00 | 0.00 | 60 | 1014.7 | |
| 20260905215517 | 84 | 0.0 | 1.0 | 0.00 | 0.00 | 0.00 | 59 | 1014.8 | |
| 20260905214517 | 85 | 0.0 | 1.0 | 0.00 | 0.00 | 0.00 | 58 | 1014.8 | |
| 20260905213517 | 85 | 315 | 1.0 | 5.0 | 0.00 | 0.00 | 0.00 | 58 | 1014.7 |
| 20260905212517 | 85 | 270 | 1.0 | 3.0 | 0.00 | 0.00 | 0.00 | 58 | 1014.7 |
| 20260905211517 | 84 | 248 | 1.0 | 4.0 | 0.00 | 0.00 | 0.00 | 57 | 1014.4 |
| 20260905210517 | 85 | 315 | 1.0 | 3.0 | 0.00 | 0.00 | 0.00 | 56 | 1014.4 |
| 20260905205517 | 86 | 225 | 1.0 | 2.0 | 0.00 | 0.00 | 0.00 | 55 | 1014.4 |
| 20260905204517 | 85 | 0.0 | 2.0 | 0.00 | 0.00 | 0.00 | 56 | 1014.5 | |
| 20260905203517 | 84 | 338 | 2.0 | 6.0 | 0.00 | 0.00 | 0.00 | 56 | 1014.4 |
| 20260905202517 | 84 | 90 | 2.0 | 5.0 | 0.00 | 0.00 | 0.00 | 57 | 1014.4 |
| 20260905201517 | 83 | 248 | 1.0 | 8.0 | 0.00 | 0.00 | 0.00 | 60 | 1014.3 |
| 20260905200517 | 82 | 315 | 2.0 | 7.0 | 0.00 | 0.00 | 0.00 | 60 | 1014.1 |
| 20260905195517 | 83 | 315 | 2.0 | 5.0 | 0.00 | 0.01 | 0.00 | 62 | 1014.2 |
| 20260905194517 | 82 | 315 | 3.0 | 7.0 | 0.00 | 0.01 | 0.00 | 61 | 1013.7 |
| 20260905193517 | 82 | 293 | 3.0 | 16.0 | 0.00 | 0.01 | 0.00 | 62 | 1013.8 |
| 20260905192517 | 82 | 113 | 1.0 | 8.0 | 0.00 | 0.01 | 0.00 | 66 | 1013.9 |
| 20260905191517 | 81 | 338 | 3.0 | 9.0 | 0.00 | 0.01 | 0.00 | 69 | 1014.0 |
| 20260905190517 | 80 | 293 | 1.0 | 3.0 | 0.00 | 0.01 | 0.00 | 73 | 1013.8 |
| 20260905185517 | 79 | 338 | 1.0 | 4.0 | 0.00 | 0.01 | 0.00 | 74 | 1014.0 |
| 20260905184536 | 79 | 315 | 2.0 | 7.0 | 0.00 | 0.01 | 0.00 | 73 | 1013.9 |
| 20260905183517 | 79 | 338 | 2.0 | 5.0 | 0.00 | 0.01 | 0.00 | 75 | 1014.2 |
| 20260905182517 | 77 | 338 | 2.0 | 6.0 | 0.00 | 0.01 | 0.00 | 77 | 1014.2 |
| 20260905181517 | 76 | 315 | 2.0 | 10.0 | 0.00 | 0.01 | 0.00 | 79 | 1014.0 |
| 20260905180536 | 75 | 248 | 2.0 | 8.0 | 0.00 | 0.01 | 0.00 | 79 | 1014.0 |
| 20260905175556 | 75 | 315 | 1.0 | 3.0 | 0.00 | 0.01 | 0.00 | 78 | 1014.2 |
| 20260905174536 | 75 | 315 | 1.0 | 2.0 | 0.00 | 0.01 | 0.00 | 79 | 1014.7 |
| 20260905173517 | 75 | 315 | 2.0 | 7.0 | 0.00 | 0.01 | 0.00 | 78 | 1015.0 |
| 20260905172517 | 76 | 293 | 1.0 | 4.0 | 0.00 | 0.01 | 0.00 | 78 | 1015.3 |
| 20260905171517 | 77 | 315 | 1.0 | 6.0 | 0.00 | 0.01 | 0.00 | 77 | 1015.5 |
| 20260905170517 | 77 | 23 | 1.0 | 2.0 | 0.00 | 0.01 | 0.00 | 77 | 1015.8 |
| 20260905165517 | 78 | 315 | 1.0 | 8.0 | 0.00 | 0.01 | 0.00 | 77 | 1016.1 |
| 20260905164517 | 79 | 315 | 2.0 | 5.0 | 0.00 | 0.01 | 0.00 | 77 | 1016.5 |
| 20260905163517 | 79 | 338 | 1.0 | 3.0 | 0.00 | 0.01 | 0.00 | 76 | 1016.6 |
| 20260905162517 | 81 | 315 | 2.0 | 7.0 | 0.00 | 0.01 | 0.00 | 74 | 1016.5 |
| 20260905161517 | 80 | 23 | 1.0 | 10.0 | 0.00 | 0.01 | 0.00 | 76 | 1016.4 |
| 20260905160517 | 82 | 315 | 2.0 | 12.0 | 0.00 | 0.01 | 0.00 | 73 | 1016.8 |
| 20260905155517 | 82 | 90 | 2.0 | 8.0 | 0.00 | 0.01 | 0.00 | 74 | 1016.7 |
| 20260905154517 | 83 | 338 | 2.0 | 5.0 | 0.00 | 0.01 | 0.00 | 71 | 1016.8 |
| 20260905153517 | 84 | 315 | 1.0 | 4.0 | 0.00 | 0.01 | 0.00 | 71 | 1017.0 |
| 20260905152517 | 85 | 338 | 1.0 | 5.0 | 0.00 | 0.01 | 0.00 | 68 | 1017.0 |
| 20260905151517 | 85 | 113 | 1.0 | 5.0 | 0.00 | 0.01 | 0.00 | 70 | 1017.2 |
| 20260905150516 | 84 | 315 | 1.0 | 2.0 | 0.00 | 0.01 | 0.00 | 73 | 1017.1 |
| 20260905145517 | 83 | 315 | 2.0 | 7.0 | 0.00 | 0.01 | 0.00 | 72 | 1016.8 |
| 20260905144516 | 82 | 338 | 1.0 | 3.0 | 0.00 | 0.01 | 0.00 | 74 | 1016.7 |
| 20260905143516 | 81 | 315 | 2.0 | 12.0 | 0.00 | 0.01 | 0.00 | 76 | 1016.9 |
| 20260905142517 | 80 | 315 | 2.0 | 7.0 | 0.00 | 0.01 | 0.00 | 76 | 1016.6 |
| 20260905141517 | 80 | 293 | 1.0 | 8.0 | 0.00 | 0.01 | 0.00 | 78 | 1016.7 |
| 20260905140536 | 79 | 315 | 1.0 | 5.0 | 0.00 | 0.01 | 0.00 | 80 | 1016.4 |
| 20260905135517 | 78 | 0.0 | 2.0 | 0.00 | 0.01 | 0.00 | 82 | 1016.3 | |
| 20260905134517 | 76 | 0.0 | 2.0 | 0.00 | 0.01 | 0.00 | 84 | 1016.3 | |
| 20260905133516 | 76 | 0.0 | 1.0 | 0.00 | 0.01 | 0.00 | 83 | 1016.4 | |
| 20260905132516 | 76 | 0.0 | 2.0 | 0.00 | 0.01 | 0.00 | 84 | 1016.5 | |
| 20260905131517 | 75 | 0.0 | 1.0 | 0.00 | 0.01 | 0.00 | 84 | 1016.4 | |
| 20260905130536 | 75 | 0.0 | 1.0 | 0.00 | 0.01 | 0.00 | 83 | 1016.4 | |
| 20260905125517 | 75 | 0.0 | 1.0 | 0.00 | 0.01 | 0.00 | 83 | 1016.4 | |
| 20260905124516 | 74 | 0.0 | 1.0 | 0.00 | 0.01 | 0.00 | 85 | 1016.6 | |
| 20260905123555 | 73 | 0.0 | 2.0 | 0.00 | 0.01 | 0.00 | 86 | 1016.3 | |
| 20260905122516 | 72 | 0.0 | 0.0 | 0.00 | 0.01 | 0.00 | 87 | 1016.2 | |
| 20260905121516 | 71 | 0.0 | 0.0 | 0.00 | 0.01 | 0.00 | 88 | 1016.1 | |
| 20260905120516 | 70 | 0.0 | 0.0 | 0.00 | 0.01 | 0.00 | 90 | 1015.9 | |
| 20260905115516 | 69 | 0.0 | 0.0 | 0.00 | 0.01 | 0.00 | 90 | 1015.8 | |
| 20260905114536 | 69 | 0.0 | 0.0 | 0.00 | 0.01 | 0.00 | 91 | 1016.0 | |
| 20260905113516 | 69 | 0.0 | 0.0 | 0.00 | 0.01 | 0.00 | 91 | 1015.9 | |
| 20260905112516 | 68 | 0.0 | 0.0 | 0.00 | 0.01 | 0.00 | 91 | 1015.9 | |
| 20260905111516 | 68 | 0.0 | 0.0 | 0.00 | 0.01 | 0.00 | 91 | 1015.8 | |
| 20260905110516 | 68 | 0.0 | 0.0 | 0.00 | 0.01 | 0.00 | 90 | 1015.8 | |
| 20260905105536 | 69 | 0.0 | 0.0 | 0.00 | 0.01 | 0.00 | 90 | 1015.7 |